Location: Cheyres
(46.8153°N, 6.7877°E)
Time: 02:01:33
(UTC+00:00)

SEEDS - Pass Details

Date: 09 July 2022
Orbit: 579 x 598 km, 97.6° (Epoch: 06 August)

Event Time Altitude Azimuth Distance (km) Brightness Sun altitude
Rises 02:47:18 0° 28° (NNE) 2,810 ? -8.7°
Reaches altitude 10° 02:50:04 10° 48° (NE) 1,904 ? -8.4°
Maximum altitude 02:52:54 18° 91° (E) 1,458 ? -8.1°
Drops below altitude 10° 02:55:44 10° 135° (SE) 1,894 ? -7.7°
Sets 02:58:28 0° 155° (SSE) 2,788 ? -7.4°
